ITUPSAT1

Last updated on Fri Sep 11 2026 00:03:12 GMT+0000 (Coordinated Universal Time)

1 35935U 09051E 26252.71075265 .00000486 00000+0 11010-3 0 9993 2 35935 98.3953 160.5973 0007220 346.9771 13.1241 14.60545019901077
UTC large
Height (km)
Speed (km/s)
/
Latitude / Longitude
Inclination (degrees)
Orbital Period (minutes)
Azimuth
Elevation
Range (km)
Doppler Factor

Next 0 passes for location: London (51.5072 / 0.1276)

No passes found over London.
ITUPSAT1